FW9692 Weather Reports


time (UTC)temp
C
wind
direction
speed
KPH
gust
KPH
rain 1hr
cm
rain 24hr
cm
rain mn
cm
humidity
%
barometer
mb
20260901183038 33 144 19.3 27.4 0.00 0.00 0.00 34 1001.6
20260901181559 32 146 8.0 24.1 0.00 0.00 0.00 35 1001.7
20260901180054 32 44 1.6 22.5 0.00 0.00 0.00 36 1001.9
20260901174551 31 211 12.9 22.5 0.00 0.00 0.00 37 1002.1
20260901173105 31 137 9.7 19.3 0.00 0.00 0.00 37 1002.1
20260901171548 31 194 9.7 19.3 0.00 0.00 0.00 37 1002.4
20260901170058 31 184 12.9 24.1 0.00 0.00 0.00 39 1002.5
20260901164605 30 202 12.9 20.9 0.00 0.00 0.00 40 1002.4
20260901163049 30 173 17.7 25.7 0.00 0.00 0.00 42 1002.5
20260901161529 30 160 14.5 24.1 0.00 0.00 0.00 43 1002.5
20260901160031 30 189 12.9 19.3 0.00 0.00 0.00 43 1002.5
20260901154528 29 210 6.4 12.9 0.00 0.00 0.00 45 1002.6
20260901153036 28 178 6.4 11.3 0.00 0.00 0.00 46 1002.5
20260901151522 28 189 8.0 12.9 0.00 0.00 0.00 49 1002.4
20260901150015 27 157 9.7 14.5 0.00 0.00 0.00 52 1002.5
20260901144524 26 178 11.3 16.1 0.00 0.00 0.00 54 1002.6
20260901143008 25 158 20.9 27.4 0.00 0.00 0.00 56 1002.6
20260901141511 25 155 22.5 29.0 0.00 0.00 0.00 57 1002.5
20260901140007 25 148 22.5 30.6 0.00 0.00 0.00 59 1002.6
20260901134508 24 149 19.3 25.7 0.00 0.00 0.00 60 1002.5
20260901133007 23 149 17.7 22.5 0.00 0.00 0.00 61 1002.4
20260901131508 23 144 17.7 22.5 0.00 0.00 0.00 62 1002.2
20260901130004 23 144 16.1 22.5 0.00 0.00 0.00 62 1002.1
20260901124502 23 144 16.1 20.9 0.00 0.00 0.00 62 1001.8
20260901123058 23 142 19.3 24.1 0.00 0.00 0.00 61 1001.5
20260901121610 23 139 17.7 22.5 0.00 0.00 0.00 61 1001.3
20260901120106 23 139 17.7 22.5 0.00 0.00 0.00 61 1001.2
20260901114601 23 144 20.9 25.7 0.00 0.00 0.00 61 1001.2
20260901113055 24 146 19.3 27.4 0.00 0.00 0.00 60 1001.1
20260901111554 24 140 20.9 25.7 0.00 0.00 0.00 60 1001.2
20260901110152 24 153 20.9 25.7 0.00 0.00 0.00 59 1001.1
20260901104551 25 142 20.9 25.7 0.00 0.00 0.00 58 1001.0
20260901103106 25 138 16.1 22.5 0.00 0.00 0.00 58 1000.8
20260901101553 25 138 14.5 17.7 0.00 0.00 0.00 57 1000.9
20260901100055 25 147 9.7 16.1 0.00 0.00 0.00 57 1001.1
20260901094550 25 221 3.2 9.7 0.00 0.00 0.00 57 1001.0
20260901093114 25 132 6.4 14.5 0.00 0.00 0.00 56 1000.9
20260901091600 25 110 6.4 16.1 0.00 0.00 0.00 56 1000.8
20260901090039 25 119 17.7 24.1 0.00 0.00 0.00 57 1000.8
20260901084537 25 124 14.5 19.3 0.00 0.00 0.00 56 1000.8
20260901083043 25 107 11.3 16.1 0.00 0.00 0.00 56 1000.8
20260901081537 26 140 14.5 16.1 0.00 0.00 0.00 56 1000.8
20260901080043 26 171 9.7 11.3 0.00 0.00 0.00 56 1001.0
20260901074536 25 190 9.7 16.1 0.00 0.00 0.00 57 1001.0
20260901073035 25 232 8.0 11.3 0.00 0.00 0.00 58 1001.3
20260901071535 25 217 6.4 9.7 0.00 0.00 0.00 58 1001.1
20260901070037 25 216 8.0 11.3 0.00 0.00 0.00 58 1000.9
20260901064538 25 233 6.4 11.3 0.00 0.00 0.00 57 1000.8
20260901063037 25 218 8.0 14.5 0.00 0.00 0.00 57 1000.7
20260901061535 25 229 12.9 16.1 0.00 0.00 0.00 56 1000.6
20260901060034 26 194 14.5 22.5 0.00 0.00 0.00 55 1000.4
20260901054532 26 201 14.5 22.5 0.00 0.00 0.00 54 1000.3
20260901053036 26 186 29.0 37.0 0.00 0.00 0.00 50 1000.3
20260901051533 26 171 32.2 38.6 0.00 0.00 0.00 50 1000.0
20260901050031 27 165 33.8 41.8 0.00 0.00 0.00 49 999.8
20260901044531 26 173 32.2 40.2 0.00 0.00 0.00 51 999.7
20260901043031 26 171 32.2 40.2 0.00 0.00 0.00 51 999.7
20260901041601 26 173 32.2 41.8 0.00 0.00 0.00 51 999.6
20260901034558 26 187 29.0 45.1 0.00 0.00 0.00 53 999.5
20260901033057 28 196 51.5 61.2 0.00 0.00 0.00 46 999.3
20260901031534 28 177 43.5 49.9 0.00 0.00 0.00 43 999.2
20260901030030 28 163 46.7 59.5 0.00 0.00 0.00 42 998.7
20260901024531 29 169 51.5 64.4 0.00 0.00 0.00 42 998.4
20260901023033 28 167 45.1 53.1 0.00 0.00 0.00 44 997.9
20260901021538 27 189 48.3 69.2 0.00 0.00 0.00 51 997.9
20260901020037 30 183 51.5 62.8 0.00 0.00 0.00 41 997.7
20260901014537 33 138 46.7 64.4 0.00 0.00 0.00 36 997.0
20260901013036 33 145 43.5 57.9 0.00 0.00 0.00 34 996.7
20260901011531 33 132 48.3 56.3 0.00 0.00 0.00 34 996.6
20260901010039 34 124 35.4 48.3 0.00 0.00 0.00 33 996.9
20260901004530 34 129 35.4 48.3 0.00 0.00 0.00 32 996.8
20260901003029 35 138 32.2 41.8 0.00 0.00 0.00 31 996.4
20260901001533 35 139 38.6 51.5 0.00 0.00 0.00 31 996.3
20260901000029 35 139 27.4 41.8 0.00 0.00 0.00 30 996.5
20260831234539 36 147 25.7 41.8 0.00 0.00 0.00 26 996.5
20260831233021 35 137 16.1 32.2 0.00 0.00 0.00 27 996.5
20260831231529 35 124 24.1 37.0 0.00 0.00 0.00 26 996.6
20260831230029 35 90 17.7 32.2 0.00 0.00 0.00 27 996.6
20260831224528 36 140 24.1 40.2 0.00 0.00 0.00 26 996.5
20260831223024 35 49 24.1 35.4 0.00 0.00 0.00 27 996.6
20260831221536 35 138 29.0 38.6 0.00 0.00 0.00 26 996.8
20260831220027 36 92 19.3 37.0 0.00 0.00 0.00 26 997.0
20260831214540 36 85 16.1 27.4 0.00 0.00 0.00 25 997.3
20260831213030 36 88 20.9 29.0 0.00 0.00 0.00 26 997.5
20260831211515 36 178 1.6 9.7 0.00 0.00 0.00 25 997.9
20260831210008 35 111 9.7 29.0 0.00 0.00 0.00 27 998.3
20260831204506 35 165 4.8 22.5 0.00 0.00 0.00 28 998.4
20260831203006 35 90 12.9 24.1 0.00 0.00 0.00 28 998.6
20260831201518 35 350 11.3 19.3 0.00 0.00 0.00 27 999.0
20260831200019 35 65 6.4 16.1 0.00 0.00 0.00 28 999.2
20260831194518 34 182 9.7 20.9 0.00 0.00 0.00 29 999.3
20260831193013 35 167 11.3 25.7 0.00 0.00 0.00 29 999.5
20260831191508 34 259 8.0 17.7 0.00 0.00 0.00 30 999.7
20260831190008 33 289 4.8 17.7 0.00 0.00 0.00 31 999.8
20260831184506 33 244 16.1 19.3 0.00 0.00 0.00 31 1000.0